sat.trackr.live / text

‹ back to catalog

QIANFAN-192

NORAD 69410 · 2026-125K

PAYLOAD ACTIVE UNKNOWN

§ Identity

Operator
Country
PRC
Launch date
2026-06-05
Launch site
WSC
Launch vehicle
Mass (kg)
RCS (m²)

External: N2YO · Heavens-Above · Gunter

§ Orbital elements

Epoch: 2026-09-20T04:23:47.209056Z

Period
106.59 min
Inclination
88.9888°
Eccentricity
0.0002169
Mean motion
13.51019611 rev/d
Perigee alt
1,066.9 km
Apogee alt
1,070.1 km
Semi-major
7,446.6 km
B*
1.6560e-5
RAAN
270.3510°
Arg perigee
105.2309°
Mean anomaly
254.9082°
Rev number
1,477

§ Raw data

QIANFAN-1921 69410U 26125K   26263.18318529  .00000023  00000+0  16560-4 0  99982 69410  88.9888 270.3510 0002169 105.2309 254.9082 13.51019611 14774

JSON: /api/v1/satellites/69410 · /tle

For live sub-satellite position, see the globe view (requires WebGL).

§ Visibility from observer

Set your observer location to see the next 7 days of passes ≥ 10°. The values pass through the URL so the page stays shareable.

No JS? Fill the form by hand. The geolocation button needs JavaScript.